Regional Weather Roundup
Issued by NWS Goodland, KS

Home | Current Version | Previous Version | Graphics & Text | Print | Product List | Glossary On
Versions: 1 2 3 4 5 6 7 8 9 10 11 12 13 14 15 16 17 18 19 20 21 22 23 24 25 26 27 28 29 30 31 32 33 34 35 36 37 38 39 40 41 42 43 44 45 46 47 48 49 50
000
ASUS43 KGLD 292159
RWRGLD

GOODLAND FORECAST AREA HOURLY WEATHER ROUNDUP
NATIONAL WEATHER SERVICE GOODLAND KS
300 PM MST THU JAN 29 2015

...OFFICIAL OBSERVATIONS...

CITY           SKY/WX    TMP DP  RH WIND       PRES   REMARKS
GOODLAND KS    SUNNY     48  18  30 N12       30.46S
HILL CITY KS   SUNNY     48  23  37 N8        30.48R
IMPERIAL NEB   SUNNY     46  21  37 N13       30.46S
MCCOOK NEB     SUNNY     48  21  34 NW10      30.46S
AKRON CO       SUNNY     47  16  29 NE5       30.44S
BURLINGTON CO  SUNNY     49  11  21 N10       30.45F
LIMON CO       MOSUNNY   46  19  34 S5        30.44S
$$

...UNOFFICIAL OBSERVATIONS...

CITY           SKY/WX    TMP DP  RH WIND       PRES   REMARKS
COLBY KS       SUNNY     46  28  49 N9        30.48R
GOVE KS          N/A     46  32  58 MISG        N/A
NORTON KS      SUNNY     48  19  32 NW7       30.46S
SHARON SPRINGS   N/A     48  20  32 NE8G16      N/A
KIT CARSON CO    N/A     50  21  31 MISG        N/A
$$



USA.gov is the U.S. government's official web portal to all federal, state and local government web resources and services.